{"data":{"norad_id":67688,"intl_designator":"1998-067YE","name":"HMU-SAT2","alt_names":[],"object_type":"PAYLOAD","status":"ACTIVE","operator":null,"country":"JPN","launch_date":"1998-11-20","launch_site_code":"TYMSC","launch_vehicle":null,"mission":null,"orbit_class":"UNKNOWN","rcs_meters":null,"size_class":null,"mass_kg":null,"dimensions":null,"purposes":["station"],"wikipedia_slug":null,"has_3d_model":false,"image_url":null,"decayed_at":null,"tle_current":{"epoch":"2026-05-24T23:57:32.236992Z","epoch_age_seconds":72648,"freshness":"FRESH","line1":"1 67688U 98067YE  26144.99828978  .00056437  00000+0  68185-3 0  9997","line2":"2 67688  51.6294  49.9725 0009764  98.1989 262.0112 15.60112167 16595","mean_motion":15.60112167,"eccentricity":0.0009764,"inclination_deg":51.6294,"raan_deg":49.9725,"arg_perigee_deg":98.1989,"mean_anomaly_deg":262.0112,"bstar":0.00068185,"rev_number":1659,"period_min":92.301055684287,"perigee_km":380.72697975964,"apogee_km":393.93858915473,"semimajor_km":6765.4697844572,"source":"CELESTRAK","updated_at":"2026-05-25T13:38:08.477899Z"}}}